Tracking 31027 objects as of 19-Jul-2025
HD Live streaming from Space Station
objects crossing your sky now

COSMOS 2498

Track COSMOS 2498 now!
10-day predictions
COSMOS 2498 is classified as:


NORAD ID: 39763
Int'l Code: 2014-028C
Perigee: 1,483.9 km
Apogee: 1,518.5 km
Inclination: 82.4 °
Period: 115.9 minutes
Semi major axis: 7872 km
RCS: Unknown
Launch date: May 23, 2014
Source: Commonwealth of Independent States (former USSR) (CIS)
Launch site: PLESETSK MISSILE AND SPACE COMPLEX (PKMTR)

COSMOS 2498 is part of the Russian military's Rodnik, or Strela 3M, system designed to relay messages between users posted in remote locations.
Your satellite tracking list
HAWK-4A
Track 1 satellite(s)




NASA's NSSDC Master Catalog

Two Line Element Set (TLE):
1 39763U 14028C   25199.58031284  .00000035  00000-0  18318-3 0  9992
2 39763  82.4492 317.8656 0021928  83.0942 277.2631 12.42966208506103
Source of the keplerian elements: AFSPC